Regional Weather Roundup
Issued by NWS Charleston, SC

Current Version | Previous Version | Graphics & Text | Print | Product List | Glossary On
Versions: 1 2 3 4 5 6 7 8 9 10 11 12 13 14 15 16 17 18 19 20 21 22 23 24 25 26 27 28 29 30 31 32 33 34 35 36 37 38 39 40 41 42 43 44 45 46 47 48 49 50
000 ASUS42 KCHS 260010 RWRCHS REGIONAL WEATHER ROUNDUP NATIONAL WEATHER SERVICE CHARLESTON SC 700 PM EST SUN JAN 25 2015 NOTE: "FAIR" INDICATES FEW OR NO CLOUDS BELOW 12,000 FEET WITH NO SIGNIFICANT WEATHER AND/OR OBSTRUCTIONS TO VISIBILITY. NOT ALL STATIONS ARE QUALITY CONTROLLED BY THE NATIONAL WEATHER SERVICE. USE DATA WITH CAUTION...ESPECIALLY DEWPOINT OBSERVATIONS. SCZ027-030-031-034>040-042>050-260100- ...SOUTHEAST SOUTH CAROLINA... CITY SKY/WX TMP DP RH WIND PRES REMARKS N CHARLESTON CLEAR 45 37 73 S7 29.88R 6HR MIN TEMP: 45; 6HR MAX TEMP: 59; WATERFRONT PRK N/A 52 N/A N/A S8 N/A MOUNT PLEASANT FAIR N/A N/A N/A S3 29.88R PINOPOLIS NOT AVBL MONCKS CORNER FAIR 50 37 62 S5 29.87R SUMMERVILLE FAIR 48 39 71 S3 29.88R BEAUFORT MCAS CLEAR 49 42 77 S6 29.88R 6HR MIN TEMP: 49; 6HR MAX TEMP: 59; BEAUFORT ARPT FAIR 50 45 81 SW8 29.88S HILTON HEAD IS CLEAR 52 45 76 S8 29.90R WALTERBORO CLEAR 50 36 57 S5 29.88R ALLENDALE FAIR 50 34 53 CALM 29.84R ...SOUTHERN MIDLANDS AND PEE DEE... CITY SKY/WX TMP DP RH WIND PRES REMARKS GEORGETOWN NOT AVBL KINGSTREE NOT AVBL ORANGEBURG CLEAR 50 33 52 SE6 29.84R 6HR MIN TEMP: 50; 6HR MAX TEMP: 61; BARNWELL FAIR 54 34 47 CALM 29.84R AIKEN FAIR 50 32 50 SE3 29.85R MANNING NOT AVBL COLUMBIA CLEAR 53 32 44 S3 29.82R 6HR MIN TEMP: 52; 6HR MAX TEMP: 62; SUMTER CLEAR 47 38 72 S3 29.82R 6HR MIN TEMP: 47; 6HR MAX TEMP: 60; FLORENCE CLEAR 49 37 63 S10 29.85R 6HR MIN TEMP: 49; 6HR MAX TEMP: 60; MYRTLE BEACH CLEAR 52 41 66 S12 29.90R N MYRTLE BEACH CLEAR 50 40 68 S8 29.87R 6HR MIN TEMP: 50; 6HR MAX TEMP: 52; $$ GAZ063-065-086>088-099>101-113>116-118-119-134>141-150-260100- ...SOUTHEAST GEORGIA... CITY SKY/WX TMP DP RH WIND PRES REMARKS SAVANNAH ARPT CLEAR 50 41 71 S10 29.88R 6HR MIN TEMP: 50; 6HR MAX TEMP: 63; HUNTER AAF CLEAR 51 44 76 S8 29.87R 6HR MIN TEMP: 51; 6HR MAX TEMP: 60; FORT STEWART CLEAR 53 34 47 S3 29.87R 6HR MIN TEMP: 53; 6HR MAX TEMP: 62; STATESBORO CLEAR 52 34 51 S3 29.86R SYLVANIA CLEAR 51 35 55 CALM 29.86R CLAXTON FAIR 46 39 76 CALM 29.86S ...CSRA...CENTRAL AND FAR SOUTHEAST GEORGIA... CITY SKY/WX TMP DP RH WIND PRES REMARKS THOMSON CLEAR 54 35 48 S3 29.85S AUGUSTA-BUSH CLEAR 48 31 51 S5 29.83R 6HR MIN TEMP: 47; 6HR MAX TEMP: 62; AUGUSTA-DANIEL CLEAR 54 30 40 S6 29.82S SWAINSBORO FAIR 55 21 26 S3 29.85R VIDALIA CLEAR 52 36 54 SW5 29.85S EASTMAN FAIR 51 37 58 S3 29.87R HAZLEHURST FAIR 54 37 53 S5 29.85S ALMA CLEAR 52 33 48 S6 29.87S 6HR MIN TEMP: 52; 6HR MAX TEMP: 62; WAYCROSS CLEAR 55 37 49 S5 29.88F JESUP FAIR 52 41 66 CALM 29.89S BAXLEY FAIR 52 36 54 S6 29.86F BRUNSWICK CLEAR 50 43 76 CALM 29.91S SAINT SIMONS CLEAR 55 44 66 S8 29.91R 6HR MIN TEMP: 54; 6HR MAX TEMP: 57; $$ SCZ027-028-034-036>038-045-046-048>050-GAZ119-141-260100- ...LAKE AND SUPPLEMENTAL COASTAL OBSERVATIONS... STATION/POSITION TIME TEMP WIND PRES WAVE SWELL AIR SEA DIR/SP/G HT/PER HT/PER/DIR (UTC) (F) (DEG/KT/KT) (MB) (FT/S) (FT/S/D) UPR LAKE MARION NOT AVBL WINYAH BAY 2300 50 180/ 3 1010.0S LAKE MURRAY 2300 53 200/ 6/ 10 1009.1R ACE BASIN NERRS NOT AVBL FORT PULASKI 0000 52 53 190/ 5/ 8 1012.5R SAPELO ISLAND 2300 53 170/ 9 1012.0S $$ ANZ835-935-AMZ111-154-330-350-352-354-370-450-454-472-260100- ...C-MAN AND BUOY OBSERVATIONS... STATION/POSITION TIME TEMP WIND PRES WAVE SWELL AIR SEA DIR/SP/G HT/PER HT/PER/DIR (UTC) (F) (DEG/KT/KT) (MB) (FT/S) (FT/S/D) BUOY 41004 0000 60 69 210/ 17/ 21 1011.5F 3/ 8 2/ 8 BUOY 41008 0000 55 55 180/ 16/ 19 1012.5R 2/ 3 FOLLY BEACH CMAN 2300 53 200/ 14/ 17 1012.1F CAPERS NEARSHORE 2300 54 220/ 14/ 17 N/A FRIPP NEARSHORE 2300 53 200/ 17/ 21 N/A STATION/POSITION TIME TEMP WIND PRES WAVE SWELL AIR SEA DIR/SP/G HT/PER HT/PER/DIR (UTC) (F) (DEG/KT/KT) (MB) (FT/S) (FT/S/D) 5E ST. MARYS GA 0000 58 N/A 2/ 3 FRYING PAN BUOY 0000 57 66 190/ 10/ 14 1012.7F 3/ 8 3/ 90/ 8 BUOY 41025 0000 54 69 210/ 8/ 14 1013.0S 4/ 9 3/130/ 9 CAPE LOOKOUT NC 2300 49 190/ 5/ 7 1012.7F BUOY 41002 2246 65 72 240/ 12/ 16 1013.9 6/ 8 5/260/ 8 BUOY 41010 0000 67 75 200/ 8/ 12 1014.9R 4/ 6 3/350/ 6 ST AUGUSTINE FL 0000 55 200/ 7/ 8 1014.8R $$

USA.gov is the U.S. government's official web portal to all federal, state and local government web resources and services.